Location: Jackson
(42.2460°N, 84.4010°W)
Time: 08:31:10
(UTC-05:00)

ISS - Pass Details

Date: 23 January 2026
Orbit: 413 x 428 km, 51.6° (Epoch: 13 February)

Event Time Altitude Azimuth Distance (km) Brightness Sun altitude
Rises 18:53:39 0° 305° (NW) 2,365 0.7 -13.5°
Reaches altitude 10° 18:56:08 10° 323° (NW) 1,503 -0.6 -14.0°
Maximum altitude 18:58:42 20° 13° (NNE) 1,048 -2.0 -14.4°
Enters shadow 18:59:19 19° 28° (NNE) 1,081 -2.1 -14.6°
